Vorticity
nan nan nan nan nan nan nan nan nan nan nan nan nan nan nan nan nan nan nan nan nan nan nan nan nan nan nan nan nan nan nan nan nan nan nan nan nan nan nan nan nan nan nan
nan 8 8 5 5 5 5 6 6 6 6 6 6 7 5 5 4 5 6 5 5 4 4 5 5 5 4 4 4 5 4 5 7 7 6 3 4 6 6 7 6 7 nan
nan 7 8 7 5 5 5 6 6 6 6 7 7 6 6 6 6 6 5 5 5 5 4 5 5 4 3 4 7 5 4 5 6 4 0 1 5 7 6 6 6 7 nan
nan 6 8 9 6 5 7 6 6 6 6 6 6 6 6 6 6 6 5 5 5 4 5 6 5 4 3 4 9 9 9 8 3 1 1 8 7 5 6 5 6 6 nan
nan 7 10 10 7 6 6 5 6 6 6 6 6 6 6 7 6 5 5 4 5 5 5 5 6 4 4 5 7 9 9 7 3 1 6 8 6 8 6 6 5 7 nan
nan 8 11 7 6 6 7 6 6 6 6 6 5 6 7 6 5 5 5 5 4 5 5 5 5 3 3 10 11 4 5 2 -1 2 6 7 9 9 6 6 6 7 nan
nan 8 9 9 6 6 6 6 6 7 6 5 6 5 6 6 5 5 5 7 8 4 4 5 4 3 2 7 16 8 2 2 2 6 6 7 10 6 5 5 5 6 nan
nan 7 9 7 6 7 6 7 7 7 6 5 5 5 6 8 8 6 6 7 7 5 5 5 4 4 3 4 8 12 7 3 3 5 6 6 9 7 5 4 5 5 nan
nan 5 7 8 8 5 4 7 7 7 7 6 5 5 6 7 7 6 5 5 6 6 6 5 4 4 5 4 5 8 8 4 2 6 6 6 8 7 5 5 5 5 nan
nan 5 6 6 6 6 9 8 6 7 7 6 5 5 5 3 3 3 3 6 6 6 6 5 4 5 4 4 4 9 8 -0 3 6 5 8 7 6 5 5 5 5 nan
nan 5 5 6 6 6 8 9 7 6 5 4 3 3 -0 2 4 7 8 7 6 5 5 5 4 4 5 5 6 6 5 3 6 6 8 9 6 5 5 5 5 4 nan
nan 5 5 6 6 6 6 5 5 4 4 5 5 3 4 8 7 4 6 6 3 3 8 10 8 6 5 7 6 9 10 8 6 6 9 8 6 5 5 4 4 4 nan
nan 5 7 7 6 6 6 5 5 6 8 9 8 5 6 5 7 6 4 3 3 6 7 7 9 9 7 7 7 8 10 8 6 8 9 7 5 4 4 5 4 5 nan
nan 6 6 7 7 6 7 8 7 7 7 6 6 8 8 7 7 5 5 6 7 7 6 7 7 6 7 7 9 10 9 6 7 8 10 7 4 4 4 5 4 5 nan
nan 8 7 8 8 7 6 7 7 7 8 7 9 9 6 7 7 4 5 9 8 7 6 7 8 9 8 10 13 11 8 7 7 6 11 10 5 5 5 5 5 5 nan
nan 8 10 9 8 7 8 6 7 7 7 7 8 11 11 7 6 7 5 6 8 7 7 7 7 10 8 11 13 12 6 8 7 6 7 10 10 5 5 5 5 5 nan
nan 7 7 8 11 10 6 8 9 8 7 8 6 7 8 9 9 6 6 6 7 6 9 9 8 7 7 10 9 9 9 8 7 7 6 7 10 10 7 5 5 6 nan
nan 7 5 6 9 10 8 10 9 10 8 7 8 8 8 6 7 7 7 8 9 7 8 10 12 9 8 7 8 8 8 8 8 7 6 7 7 10 11 9 6 5 nan
nan 5 7 6 7 6 8 10 10 10 9 8 7 9 10 7 7 8 9 11 6 9 10 8 9 10 10 9 8 7 7 9 9 7 7 7 7 6 8 11 10 9 nan
nan 5 8 7 6 5 6 6 7 9 9 9 7 8 8 7 8 7 8 9 7 9 9 12 9 9 11 9 9 11 8 7 8 8 9 8 8 8 7 8 10 12 nan
nan 7 7 7 5 4 6 7 8 7 7 8 10 10 7 8 7 7 8 8 8 7 8 10 9 8 9 10 11 9 10 10 9 8 9 9 8 9 8 8 9 8 nan
nan 7 5 7 6 6 9 9 9 8 8 9 9 8 8 10 7 9 8 7 8 6 8 10 12 10 8 9 10 8 7 8 14 12 9 12 12 9 9 10 12 15 nan
nan 8 6 7 7 8 7 7 7 8 9 8 9 8 6 9 12 8 5 7 8 8 7 7 7 9 10 9 10 10 10 10 9 9 10 11 13 14 12 11 10 9 nan
nan 7 7 7 6 8 6 7 8 7 7 8 8 7 6 6 11 10 7 5 7 7 7 8 8 9 8 10 8 7 11 13 8 7 7 8 8 7 9 8 8 8 nan
nan 7 8 6 6 7 8 7 7 7 8 10 8 8 7 6 10 12 10 7 6 7 6 7 8 11 10 10 9 7 6 8 10 11 6 6 6 5 9 8 7 7 nan
nan nan nan nan nan nan nan nan nan nan nan nan nan nan nan nan nan nan nan nan nan nan nan nan nan nan nan nan nan nan nan nan nan nan nan nan nan nan nan nan nan nan nan
CAPE
210 556 1472 1290 1293 1602 1479 1572 1931 2150 2099 2104 1993 2112 1744 1667 1891 2052 2200 2121 2002 2124 1798 1459 1820 1965 1840 1595 1494 1980 2042 1933 1933 1720 1582 1492 1513 1806 1858 1645 1548 1120 1252
417 1122 1968 1521 1593 1727 1657 1910 2147 2206 2064 2199 1948 2213 2077 1818 2032 1983 1829 1971 1912 1973 1949 1620 1496 1727 1648 1507 1614 1593 1709 2491 2709 2124 1889 1825 1840 1936 1805 1600 1338 714 800
930 1425 1648 2190 1642 1740 1992 2099 2118 2192 1883 2529 2059 2264 2031 1757 1804 1961 2033 2068 1471 1261 1735 1690 1690 1711 1459 1025 1044 1166 1152 2166 2150 1899 1992 1355 1491 1918 1812 1861 1878 1806 1782
1095 1130 1425 2123 1767 2057 2141 2244 2073 2008 1982 2175 2052 1955 1903 1896 2074 2101 1953 1182 1097 1191 1586 1724 1480 1498 1467 1024 1335 1687 1599 2131 1736 1429 838 1034 1348 1912 1859 1982 1882 1802 1738
697 802 1389 2033 2063 2047 2050 2257 2267 2286 2324 2274 2063 1957 2050 1920 2119 1959 1440 2011 1851 1792 1936 1536 1454 1580 1772 1579 1277 1533 1729 1747 1629 1120 850 906 1275 1844 1917 1916 1677 1642 1745
875 1117 1884 1637 2021 2028 2062 2160 2264 2305 2242 2158 2132 2018 1993 1871 1817 1842 1871 2018 2021 1822 1538 1421 1355 1580 1617 1815 2428 1722 1797 1469 974 570 803 1449 1236 1969 1770 1978 1863 1811 1856
1159 1496 1684 2246 2064 1954 2049 2047 2231 2253 2249 2302 2093 2053 1993 1918 1975 2100 2132 2173 2154 2014 1690 1304 1090 1316 1422 1695 2686 2501 1244 781 109 309 604 1046 1423 2232 1919 1903 1882 1837 1950
1200 1438 1749 2150 1967 1858 1992 2202 2331 2312 2368 2418 2274 2186 2160 2167 2199 2155 2112 2025 2348 2234 1270 1145 998 1004 1109 1449 2085 2439 1331 704 264 265 441 706 1737 1365 803 847 995 1066 1199
1116 1152 1319 1516 1705 2039 2102 2250 2325 2221 2377 2397 2383 2139 2282 2308 2295 2224 2197 1775 1323 1194 1026 869 734 778 896 1038 1241 2692 1055 736 149 248 481 603 1523 896 817 806 784 897 974
990 984 1084 1234 1360 1475 1855 2264 2211 2303 2309 2398 2461 2333 2416 2435 2222 2136 2632 2426 1855 1438 1104 926 818 779 671 755 787 1716 1228 633 22 116 360 716 1130 673 614 642 697 764 913
663 769 925 1009 1062 1244 1568 1878 2205 2274 2402 2481 2370 2444 2263 1470 1631 1723 2203 2079 1955 1819 1536 1273 1000 880 1020 1188 1381 1316 1126 0 0 68 232 1027 1038 521 538 646 790 972 1092
451 617 556 670 884 1297 1834 1472 1445 1734 1637 1845 1891 1791 1236 1123 1078 1516 1704 1873 1946 1396 1399 1909 1842 1922 1718 781 857 1360 1118 41 0 48 277 1214 751 602 669 744 791 861 920
409 468 421 641 720 775 1452 1232 1331 1084 996 942 1007 1026 1102 1152 972 89 5 21 0 17 0 1 49 1824 147 196 277 697 22 0 104 385 875 1519 960 792 768 735 854 1038 1086
249 314 233 208 371 641 1009 1057 965 979 420 423 594 847 477 535 617 0 0 0 0 0 12 0 0 506 1347 1417 1196 487 0 0 0 579 1388 1783 1784 843 722 729 816 889 1030
69 130 234 75 227 664 994 828 891 711 0 171 783 922 856 108 364 7 0 2 46 129 276 259 126 445 884 599 538 318 0 0 0 206 450 1333 1562 1026 829 798 907 1073 1172
29 203 416 451 430 504 609 654 796 673 7 760 463 499 725 284 373 8 0 0 68 226 240 118 252 0 58 181 0 0 0 0 0 66 344 536 1501 1451 1181 1148 1136 1265 1430
35 118 200 303 843 670 396 389 540 492 648 545 67 522 604 321 286 76 35 143 251 492 500 327 224 88 432 233 30 0 0 0 0 13 206 351 666 1622 1402 1434 2117 2260 1807
30 38 127 390 254 334 503 489 228 405 892 523 0 396 790 193 2 58 77 238 365 10 1265 1112 664 1094 727 288 52 146 144 1 0 0 3 38 250 386 945 2253 2434 2384 2215
0 0 0 79 316 501 792 514 675 676 439 465 596 1172 924 1067 878 1121 885 665 658 875 202 509 422 625 550 249 239 305 392 337 107 2 6 6 34 158 107 612 2154 2196 2112
0 0 0 15 390 206 343 281 144 538 816 700 838 1034 1196 672 1262 1535 930 274 0 1055 1099 1302 1306 1511 1032 316 586 694 343 248 365 532 121 206 151 194 195 309 549 1338 2176
33 66 0 69 156 51 391 459 68 369 766 826 1113 1276 864 1095 1353 1194 1341 330 235 987 1313 1343 1314 1951 1343 608 655 662 171 223 418 494 628 771 529 567 392 491 491 628 738
30 132 100 67 154 172 421 583 456 384 786 572 620 1162 1369 839 1059 1105 1061 909 856 668 133 556 1837 1859 1342 410 1016 647 232 239 216 464 516 796 770 775 925 825 1372 1280 1185
92 291 186 146 194 569 461 229 175 393 433 564 721 753 779 1137 1091 848 573 571 311 37 0 29 1348 1853 1593 1395 1091 1097 715 536 331 79 170 304 258 400 651 1059 881 1185 1109
104 222 198 221 416 378 248 277 194 205 318 328 368 345 463 63 884 1016 177 501 124 0 54 452 805 1658 1440 1519 1309 687 128 436 870 384 188 267 266 248 279 392 382 826 685
171 233 313 313 423 494 243 223 239 142 111 384 281 291 91 125 697 1290 44 651 172 131 459 885 1338 1391 1635 1226 614 249 200 34 196 274 207 4 137 264 212 237 253 346 419
81 249 278 250 325 392 285 335 347 184 265 294 217 408 378 466 425 402 1053 843 613 237 8 47 1143 1388 1466 1370 400 0 0 15 75 326 79 0 7 126 247 170 153 204 273